IUS DEB, 43360

Orbit data source: Space-Track

IUS DEB, 43360 is space debris originally from a launch on Fri, 23 Jul 1999 UTC launched from the Air Force Eastern Test Range (AFETR). Debris objects in space refer to the collection of defunct objects orbiting the Earth. Examples of debris include non-operational satellites, rocket bodies, and fragments generated from explosions, collisions, or faulty payload assembly.

Loading next visibility...
IUS DEB details
Identifier
43360, 1999-040H
Orbit
Active
Last TLE update3 months ago
Origin
Flag of USGSFC (US)
ManufacturerBoeing/Kent
MissionSpacecraft
Bus & MotorUnknown
MassUnknown
Launch date (UTC)
1999-07-23 (25 years ago)
Launch vehicleUnknown
Launch site
Air Force Eastern Test Range (AFETR)
Object type
Payload
Rocket body
Debris
Shape & HBRUnknown
Radar Cross SectionSmall (<0.1 m²)

Expand to show TLE details & history

TLE from 3 months ago
0 IUS DEB
1 43360U 99040H   24260.46981436  .00000022  00000-0  00000-0 0  9997
2 43360  27.8390 202.6046 3483886 179.9477 180.1687  7.07832462312399
Epoch: 2024-09-16T11:16Z
Definitive object data (Epoch: 2024-09-16T11:16:31.96Z)
Latitude
Longitude37.57307°
Altitude9,070.033 km
Speed4.102 km/s
True Right ascension13h 30m 25s
True Declination0° 00' 00"
Sunlit
Object was in daylight at TLE epoch
Visualization TLE readout
Latitude-1.53548°
Longitude72.00182°
Altitude5,736.203 km
Speed5.57 km/s
Apparent Right ascension17h 17m 42s
Apparent Declination-18° 53' 21"
Sunlit
Object is in daylight
Visualization observer readout
Local Sidereal Time09:59:10
Azimuth92.846° ESE
Elevation-26.845°
Doppler factor1
Orbital elements
Apogee altitude9,076.159 km
Perigee altitude1,090.182 km
Semi-major axis11,461.307 km
Eccentricity0.3483886
Inclination27.839°
RAAN202.6046°
Arg. of periapsis179.9477°
True anomaly180.08697°
Mean anomaly180.1687°
Eccentric anomaly180.12511°
Mean motion1.76885 °/min
BSTARUnknown
Orbital period203.52 mins
Loading maneuver chart data...
Loading historical data...
Loading historical data...
Loading historical data...
Loading historical data...
Loading historical data...
Loading historical data...
Loading historical data...

IUS DEB Visibility forecast

Observer location: undefined°, undefined

Span
Click to sort rows by Start time (UTC) header in descending order
Start Az.
Max El. time (UTC)
Max El. Az.
Max El.
End time (UTC)
End Az.
28 mins2024-12-26 13:27:57.652Z249.111° W2024-12-26 13:35:57.652Z192.673° SSW28.541°2024-12-26 13:55:57.652Z136.163° SSE
33 mins2024-12-26 17:11:57.652Z229.504° WSW2024-12-26 17:22:57.652Z204.712° SW15.219°2024-12-26 17:44:57.652Z175.849° S
4 mins2024-12-27 06:04:57.652Z177.431° S2024-12-27 06:06:57.652Z161.027° S12.275°2024-12-27 06:08:57.652Z142.794° SSE
11 mins2024-12-27 09:37:57.652Z226.509° WSW2024-12-27 09:41:57.652Z174.035° S28.469°2024-12-27 09:48:57.652Z112.684° SE
|